Terug naar catalogus

TANAGER-1 4001

ActiefWetenschapSSO
NORAD 60507·PAYLOAD·🇺🇸 United States

Gelanceerd Aug 16, 2024 vanaf Vandenberg Space Force Base

Loading…

Volgende Passages (komende 24 uur)

TLE

VersSource: CelesTrak SupGP

Epoch: Sep 14, 2026, 20:44 UTC

1 60507C 24149BT  26257.86440972 -.00071393  00000+0 -15767-2 0  2579
2 60507  97.2279 351.6136 0001239  26.2296  52.2646 15.43979493    13

Volg TANAGER-1 4001 in realtime met AllMySat

Download on the App Store